White Mountain, AK

6:12 PM AKDT on August 23, 2017 (GMT -0800)
White Mountain

Weather History for PAWM - July, 2013

Change the Weather History Date:

Saturday, July 20, 2013

  Actual Average (PAOM) Record (PAOM)
Temperature  
Mean Temperature 48 °F -  
Max Temperature 51 °F 59 °F 82 °F (1993)
Min Temperature 46 °F 47 °F 34 °F (1922)
Degree Days  
Heating Degree Days 16    
Moisture  
Dew Point 24 °F    
Average Humidity 39    
Maximum Humidity 66    
Minimum Humidity 32    
Precipitation  
Precipitation 0.01 in - - ()
Sea Level Pressure  
Sea Level Pressure 30.22 in    
Wind  
Wind Speed 4 mph (SSW)    
Max Wind Speed 15 mph    
Max Gust Speed 18 mph    
Visibility 6 miles    
Events Rain    
Averages and records for this station are not official NWS values.
T = Trace of Precipitation, MM = Missing Value Source: NWS Daily Summary

Daily Weather History Graph

Daily Weather History Graph

Search for Another Location

Airport or City:

Trip Planner

Search our weather history database for the weather conditions in past years. The results will help you decide how hot, cold, wet, or windy it might be!

Date:

Astronomy

Jul. 20, 2013 Rise Set
Actual Time 5:15 AM AKDT 12:41 AM AKDT
Civil Twilight 3:32 AM AKDT 2:27 AM AKDT
Nautical Twilight Sun does not set Sun does not set
Astronomical Twilight Sun does not set Sun does not set
Moon 10:40 PM AKDT (7/20) 3:17 AM AKDT (7/20)
Length of Visible Light 22h 55m
Length of Day
19h 25m
Waxing Gibbous, 94% of the Moon is Illuminated
Jul 20
Waxing Gibbous
Jul 22
Full
Jul 29
Last Quarter
Aug 6
New
Aug 14
First Quarter

Hourly Weather History & Observations

Time (AKDT) Temp. Windchill Dew Point Humidity Pressure Visibility Wind Dir Wind Speed Gust Speed Precip Events Conditions
12:27 AM 48.2 °F - 23.0 °F 37% 30.20 in 10.0 mi Calm Calm - N/A   Overcast
12:58 AM 48.0 °F - 23.0 °F 37% 30.24 in 10.0 mi SW 3.5 mph - N/A   Overcast
1:58 AM 48.0 °F - 21.9 °F 36% 30.24 in 10.0 mi WSW 4.6 mph - 0.01 in   Clear
2:20 AM 48.2 °F - 21.2 °F 34% 30.20 in 10.0 mi West 6.9 mph - N/A   Mostly Cloudy
2:58 AM 46.0 °F 43.9 °F 21.0 °F 37% 30.24 in 10.0 mi West 4.6 mph - N/A   Overcast
3:49 AM 46.4 °F - 21.2 °F 37% 30.21 in 10.0 mi Calm Calm - N/A   Overcast
3:58 AM 46.0 °F 44.8 °F 19.9 °F 35% 30.25 in 9.0 mi SW 3.5 mph - N/A   Overcast
4:58 AM 46.0 °F - 21.0 °F 37% 30.25 in 10.0 mi Calm Calm - N/A   Overcast
5:58 AM 46.9 °F - 21.0 °F 36% 30.25 in 10.0 mi Calm Calm - N/A   Overcast
6:22 AM 46.4 °F 45.2 °F 21.2 °F 37% 30.21 in 10.0 mi South 3.5 mph - N/A   Overcast
6:58 AM 48.0 °F - 21.9 °F 36% 30.26 in 10.0 mi WSW 4.6 mph - N/A   Overcast
7:36 AM 48.2 °F - 21.2 °F 34% 30.21 in 10.0 mi WNW 3.5 mph - N/A   Overcast
7:53 AM 48.2 °F - 21.2 °F 34% 30.21 in 9.0 mi Calm Calm - N/A   Overcast
7:58 AM 48.0 °F - 21.9 °F 36% 30.25 in 9.0 mi Calm Calm - N/A   Overcast
8:16 AM 48.2 °F - 23.0 °F 37% 30.21 in 4.0 mi Calm Calm - N/A   Haze
8:24 AM 48.2 °F - 21.2 °F 34% 30.22 in 2.5 mi Calm Calm - N/A   Haze
8:32 AM 48.2 °F - 21.2 °F 34% 30.21 in 2.0 mi SW 3.5 mph - N/A   Haze
8:40 AM 48.2 °F - 21.2 °F 34% 30.21 in 1.5 mi Calm Calm - N/A   Haze
8:48 AM 48.2 °F - 21.2 °F 34% 30.21 in 2.0 mi Calm Calm - N/A   Haze
8:57 AM 48.0 °F - 19.9 °F 33% 30.25 in 1.5 mi SSE 3.5 mph - N/A   Haze
9:07 AM 48.2 °F - 19.4 °F 32% 30.21 in 2.0 mi Calm Calm - 0.00 in Rain Light Rain
9:21 AM 48.2 °F - 19.4 °F 32% 30.21 in 1.2 mi Calm Calm - 0.00 in Rain Light Rain
9:26 AM 48.2 °F - 21.2 °F 34% 30.21 in 1.2 mi Calm Calm - 0.00 in Rain Light Rain
9:30 AM 48.2 °F - 21.2 °F 34% 30.21 in 4.0 mi Calm Calm - 0.00 in   Haze
9:45 AM 48.2 °F - 21.2 °F 34% 30.21 in 2.0 mi SSE 3.5 mph - 0.00 in   Haze
9:47 AM 48.2 °F - 21.2 °F 34% 30.21 in 1.0 mi South 4.6 mph - 0.00 in   Haze
9:49 AM 48.2 °F - 21.2 °F 34% 30.21 in 0.5 mi South 4.6 mph - 0.00 in   Haze
9:56 AM 48.2 °F - 21.2 °F 34% 30.21 in 0.2 mi SSE 4.6 mph - 0.00 in Rain Light Rain
9:58 AM 48.9 °F - 21.0 °F 33% 30.25 in 0.2 mi SSE 3.5 mph - 0.00 in Rain Light Rain
10:09 AM 48.2 °F - 21.2 °F 34% 30.21 in 0.5 mi SSE 4.6 mph - 0.00 in Rain Light Rain
10:14 AM 48.2 °F - 21.2 °F 34% 30.21 in 0.8 mi SSE 3.5 mph - 0.00 in Rain Light Rain
10:26 AM 48.2 °F - 21.2 °F 34% 30.21 in 1.2 mi SSE 4.6 mph - 0.00 in   Haze
10:32 AM 48.2 °F - 21.2 °F 34% 30.21 in 4.0 mi South 3.5 mph - 0.00 in   Haze
10:42 AM 48.2 °F - 21.2 °F 34% 30.21 in 3.0 mi South 3.5 mph - 0.00 in   Haze
10:44 AM 48.2 °F - 21.2 °F 34% 30.21 in 2.5 mi SSW 4.6 mph - 0.00 in   Haze
10:53 AM 50.0 °F - 21.2 °F 32% 30.21 in 1.8 mi WSW 11.5 mph 16.1 mph 0.00 in Rain Light Rain
10:58 AM 50.0 °F - 21.9 °F 33% 30.25 in 2.5 mi WSW 13.8 mph - 0.00 in Rain Light Rain
11:03 AM 50.0 °F - 21.2 °F 32% 30.21 in 4.0 mi WSW 12.7 mph - 0.00 in   Haze
11:28 AM 51.8 °F - 23.0 °F 33% 30.21 in 9.0 mi SW 15.0 mph - 0.00 in   Overcast
11:35 AM 50.0 °F - 21.2 °F 32% 30.21 in 9.0 mi SW 9.2 mph - 0.00 in   Overcast
11:58 AM 50.0 °F - 21.9 °F 33% 30.26 in 6.0 mi WSW 10.4 mph - 0.00 in   Haze
12:22 PM 50.0 °F - 21.2 °F 32% 30.21 in 5.0 mi SW 11.5 mph - N/A   Haze
12:26 PM 50.0 °F - 21.2 °F 32% 30.21 in 6.0 mi SW 13.8 mph - N/A   Haze
12:40 PM 50.0 °F - 21.2 °F 32% 30.22 in 7.0 mi WSW 10.4 mph - N/A   Overcast
12:58 PM 48.9 °F - 21.0 °F 33% 30.26 in 9.0 mi WSW 11.5 mph - N/A   Overcast
1:49 PM 50.0 °F - 26.6 °F 40% 30.22 in 10.0 mi SW 11.5 mph - N/A   Overcast
1:58 PM 50.0 °F - 28.0 °F 43% 30.25 in 9.0 mi SW 15.0 mph - N/A   Overcast
2:57 PM 48.9 °F - 30.9 °F 50% 30.25 in 8.0 mi SW 13.8 mph - N/A   Overcast
3:58 PM 48.9 °F - 30.9 °F 50% 30.25 in 9.0 mi SW 15.0 mph 18.4 mph N/A   Overcast
4:08 PM 50.0 °F - 39.2 °F 66% 30.20 in 7.0 mi SSW 10.4 mph - N/A   Overcast
4:58 PM 48.9 °F - 23.0 °F 36% 30.24 in 8.0 mi SW 11.5 mph - N/A   Overcast
5:30 PM 50.0 °F - 30.2 °F 47% 30.20 in 8.0 mi SW 9.2 mph - N/A   Overcast
5:58 PM 50.0 °F - 32.0 °F 50% 30.24 in 9.0 mi SSW 11.5 mph - N/A   Overcast
6:58 PM 50.0 °F - 32.0 °F 50% 30.23 in 9.0 mi SSW 8.1 mph - N/A   Overcast
7:51 PM 50.0 °F - 35.6 °F 58% 30.20 in 9.0 mi SSW 9.2 mph - N/A   Overcast
7:58 PM 50.0 °F - 35.1 °F 57% 30.23 in 9.0 mi SSW 10.4 mph - N/A   Overcast
8:58 PM 50.0 °F - 35.1 °F 57% 30.22 in 9.0 mi South 8.1 mph - N/A   Overcast
9:05 PM 50.0 °F - 33.8 °F 54% 30.18 in 9.0 mi South 8.1 mph - N/A   Overcast
9:58 PM 48.9 °F - 33.1 °F 54% 30.22 in 8.0 mi SSW 9.2 mph - N/A   Overcast
10:13 PM 48.2 °F - 33.8 °F 58% 30.18 in 8.0 mi SSW 4.6 mph - N/A   Overcast
10:58 PM 48.9 °F - 30.0 °F 48% 30.22 in 6.0 mi South 6.9 mph - N/A   Haze
11:58 PM 48.9 °F - 26.1 °F 41% 30.21 in 5.0 mi SW 8.1 mph - N/A   Haze